INTELSAT 33E DEB, 61995

Orbit data source: Space-Track

INTELSAT 33E DEB, 61995 is space debris in GEO originally from a launch on Wed, 24 Aug 2016 UTC launched from the French Guiana (FRGUI). Debris objects in space refer to the collection of defunct objects orbiting the Earth. Examples of debris include non-operational satellites, rocket bodies, and fragments generated from explosions, collisions, or faulty payload assembly.

Not visible in the next 10 days
Identifier
61995, 2016-053M
Orbit
GEO
Country
Flag of UnknownUnknown / ITSO
Related business
Manufacturer
Boeing/ES
Mission
Spacecraft
Bus & Motor
Unknown
Mass
Unknown
Launch date (UTC)
2016-08-24 (9 years ago)
Launch vehicle
Unknown
Launch site
French Guiana (FRGUI)
Object type
Payload
Rocket body
Debris
Shape & HBR
Unknown shape, 1.1 m
Radar Cross Section
RCS unknown

Expand to show TLE details & history
Last TLE update: 3 days ago

TLE from 3 days ago
0 INTELSAT 33E DEB
1 61995U 16053M   25311.75720105  .00000055  00000-0  00000-0 0  9994
2 61995   0.9731  85.2962 0052183 276.2022 358.5502  1.01039432  3895
Epoch: 2025-11-07T18:10Z
TLE epoch observation values (Epoch: 2025-11-07T18:10:22.170Z)
Latitude
-0.94783°
Longitude
40.21175°
Altitude
35,353.606 km
Speed
3.099 km/s
True Right ascension
00h 00m 00s
True Declination
0° 56' 49"
Sunlit
Object was in daylight at epoch
Visualization orbit readout
Latitude
Unknown
Longitude
Unknown
Altitude
Unknown
Speed
Unknown
Apparent Right ascension
Unknown
Apparent Declination
Unknown
Sunlit
N/A
Visualization observer readout
Local Sidereal Time
03:22:28
Azimuth
Unknown
Elevation
Unknown
Doppler factor
Unknown
Orbital elements
Apogee altitude
35,792.752 km
Perigee altitude
35,354.916 km
Semi-major axis
41,951.971 km
Eccentricity
0.00522
Inclination
0.9731°
RAAN
85.2962°
Arg. of periapsis
276.2022°
True anomaly
358.53497°
Mean anomaly
358.5502°
Eccentric anomaly
358.5426°
Mean motion
0.25259 °/min
Orbital period
1,425.24 mins
BSTAR
0
Loading maneuver chart data...
Computing Atmospheric mass density...
Loading historical data...
Loading historical data...
Loading historical data...
Loading historical data...
Loading historical data...
Loading historical data...
Loading historical data...

Documentation

Showing up to 5 results
|